Weather in Des Moines

United States     41°34′46″N   93°38′41″W
temp.,
°C
wind,
m/s
gust,
m/s
humid.,
%
clouds,
%
prec.,
mm/h
press.,
hPa
HPBL,
m
26 may, thu
thu2601:00+12ne479898 1.5 1006213
04:00+11nne3599100 0.0 1007162
07:00+11nne3598100 0.1 1008207
10:00+15n558980 0.0 1008507
13:00+16n578299 0.1 1009780
16:00+16n787980 0.0 1008837
19:00+14nnw7118225 0.0 1009512
22:00+11nnw511904 0.0 1011374
27 may, fri
fri2701:00+10n512940 0.0 1011376
04:00+9nnw389456 0.0 1012220
07:00+9nw49915 0.0 1013231
10:00+15nnw68700 0.0 1014778
13:00+19n46575 0.0 10131135
16:00+22nnw34530 0.0 10121392
19:00+21e116419 0.0 1011219
22:00+14se338110 0.0 101228
28 may, sat
sat2801:00+12s359149 0.0 101268
04:00+12sse499482 0.0 1010149
07:00+13s3109090 0.0 1011261
10:00+19s8137498 0.1 1008600
13:00+22s81171100 1.6 1007989
16:00+23sse71274100 0.0 10041412
19:00+22sse61380100 0.0 1002564
22:00+22sse61384100 0.0 1002496
29 may, sun
sun2901:00+20sse41195100 0.0 1001295
04:00+20sse6149415 0.0 998484
07:00+20sse6158848 0.0 998627
10:00+25s8147398 0.0 997912
13:00+28s8126217 0.0 9971145
16:00+29s81466100 0.0 9961115
19:00+27s916755 0.0 997838
22:00+25s10207512 0.0 1000817
30 may, mon
mon3001:00+24ssw10226260 0.0 1001825
04:00+24ssw10235512 0.0 1002853
07:00+22ssw923637 0.0 1005725
10:00+25ssw1021645 0.0 1007859
13:00+29ssw917560 0.0 1007980
16:00+29s915580 0.0 10071122
19:00+26s915680 0.0 1009952
22:00+24s818690 0.0 1011918